Zurück zum Katalog

NOAA 17 DEB

AktivPO
NORAD 48166·DEBRIS·🇺🇸 United States

Gestartet Jun 24, 2002 von Vandenberg Space Force Base

Loading…

Nächste Überflüge (nächste 24 Stunden)

TLE

AktuellSource: Space-Track

Epoche: Sep 14, 2026, 01:27 UTC

1 48166U 02032G   26257.06042900  .00007947  00000-0  13730-2 0  9998
2 48166  98.7864 278.0890 0009201 238.8938 121.1363 14.68680149289616

Verfolge NOAA 17 DEB in Echtzeit mit AllMySat

Download on the App Store